User: anonymous   Login
Location: Aix-en-Ergny
(50.5839°N, 1.9996°E)
Time: 14:15:36
(UTC+00:00)
Language:

Cosmos 1190 Rocket - Orbit

View from above orbital plane
View from above orbital plane
View from above satellite
View from above satellite

Ground track
Ground track

The orbit data is extracted from the following two-line orbital elements,

1 11870U 80056B   19348.04484196 -.00000033  00000-0 -21838-5 0  9992
2 11870  74.0515 336.6483 0015077  61.1745 299.0920 14.36945779 65498
Epoch (UTC): 14 December 2019 01:04:34
Eccentricity: 0.0015077
inclination: 74.0515°
perigee height: 758 km
apogee height: 779 km
right ascension of ascending node: 336.6483°
argument of perigee: 61.1745°
revolutions per day: 14.36945779
mean anomaly at epoch: 299.0920°
orbit number at epoch: 6549

The dashed part of the orbit path shows where the satellite is in the earth's shadow,  

DLR